Location: Marengo
(51.4813°N, 109.7825°W)
Time: 02:58:08
(UTC+00:00)

BlueWalker 3 - Pass Details

Date: 04 December 2022
Orbit: 499 x 517 km, 53.2° (Epoch: 26 January)

Event Time Altitude Azimuth Distance (km) Brightness Sun altitude
Rises 01:04:36 0° 278° (W) 2,634 6.9 -16.5°
Reaches altitude 10° 01:06:49 10° 281° (W) 1,742 5.7 -16.9°
Maximum altitude 01:10:45 68° 5° (N) 554 2.0 -17.4°
Enters shadow 01:11:54 43° 73° (ENE) 732 2.2 -17.6°
